sat.trackr.live / text

‹ back to catalog

KUIPER-00213

NORAD 67777 · 2026-030P

PAYLOAD ACTIVE UNKNOWN

§ Identity

Operator
Country
US
Launch date
2026-02-12
Launch site
FRGUI
Launch vehicle
Mass (kg)
RCS (m²)

External: N2YO · Heavens-Above · Gunter

§ Orbital elements

Epoch: 2026-09-20T22:56:57.548832Z

Period
97.30 min
Inclination
51.8957°
Eccentricity
0.0000687
Mean motion
14.79945761 rev/d
Perigee alt
629.0 km
Apogee alt
630.0 km
Semi-major
7,007.6 km
B*
2.5935e-4
RAAN
62.1850°
Arg perigee
116.1987°
Mean anomaly
243.9046°
Rev number
3,419

§ Raw data

KUIPER-002131 67777U 26030P   26263.95622163  .00001757  00000+0  25935-3 0  99942 67777  51.8957  62.1850 0000687 116.1987 243.9046 14.79945761 34195

JSON: /api/v1/satellites/67777 · /tle

For live sub-satellite position, see the globe view (requires WebGL).

§ Visibility from observer

Set your observer location to see the next 7 days of passes ≥ 10°. The values pass through the URL so the page stays shareable.

No JS? Fill the form by hand. The geolocation button needs JavaScript.